Weather History for KACK - November, 2013

Change the Weather History Date:

Monday, November 18, 2013

  Actual Average Record
Temperature  
Mean Temperature 56 °F -  
Max Temperature 60 °F 53 °F 65 °F (1978)
Min Temperature 51 °F 38 °F 24 °F (1972)
Degree Days  
Heating Degree Days 10    
Growing Degree Days 6 (Base 50)    
Moisture  
Dew Point 54 °F    
Average Humidity 92    
Maximum Humidity 100    
Minimum Humidity 66    
Precipitation  
Precipitation 0.43 in - - ()
Sea Level Pressure  
Sea Level Pressure 29.71 in    
Wind  
Wind Speed 18 mph (SSW)    
Max Wind Speed 28 mph    
Max Gust Speed 40 mph    
Visibility 5 miles    
Events Fog , Rain    
Averages and records for this station are not official NWS values.
T = Trace of Precipitation, MM = Missing Value Source: NWS Daily Summary

Daily Weather History Graph

Daily Weather History Graph

Search for Another Location

Airport or City:

Trip Planner

Search our weather history database for the weather conditions in past years. The results will help you decide how hot, cold, wet, or windy it might be!

Date:

Astronomy

Nov. 18, 2013 Rise Set
Actual Time 6:32 AM EST 4:18 PM EST
Civil Twilight 6:02 AM EST 4:48 PM EST
Nautical Twilight 5:28 AM EST 5:21 PM EST
Astronomical Twilight 4:55 AM EST 5:54 PM EST
Moon 5:18 PM EST (11/18) 7:18 AM EST (11/18)
Length of Visible Light 10h 46m
Length of Day
9h 46m
Full, 99% of the Moon is Illuminated
Nov 18
Full
Nov 25
Last Quarter
Dec 2
New
Dec 9
First Quarter
Dec 17
Full

Hourly Weather History & Observations

Time (EST) Temp. Dew Point Humidity Pressure Visibility Wind Dir Wind Speed Gust Speed Precip Events Conditions
12:35 AM 55.4 °F 55.4 °F 100% 29.88 in 0.8 mi South 16.1 mph - 0.00 in   Mist
12:53 AM 55.9 °F 55.0 °F 97% 29.88 in 0.5 mi South 17.3 mph - 0.00 in Fog Fog
1:53 AM 55.9 °F 55.9 °F 100% 29.86 in 0.5 mi South 16.1 mph - 0.00 in Fog Fog
2:39 AM 55.4 °F 55.4 °F 100% 29.82 in 0.2 mi South 15.0 mph - N/A Fog Fog
2:53 AM 55.9 °F 55.0 °F 97% 29.82 in 0.2 mi South 17.3 mph - N/A Fog Fog
3:09 AM 55.4 °F 55.4 °F 100% 29.81 in 0.2 mi South 17.3 mph - N/A Fog Fog
3:31 AM 55.4 °F 55.4 °F 100% 29.81 in 0.5 mi South 16.1 mph - N/A Fog Fog
3:53 AM 57.0 °F 55.9 °F 96% 29.81 in 1.0 mi South 17.3 mph - N/A   Mist
4:00 AM 55.4 °F 55.4 °F 100% 29.80 in 3.0 mi South 16.1 mph - N/A   Overcast
4:16 AM 55.4 °F 55.4 °F 100% 29.79 in 5.0 mi South 18.4 mph - N/A   Overcast
4:43 AM 55.4 °F 55.4 °F 100% 29.77 in 5.0 mi South 17.3 mph - N/A   Mostly Cloudy
4:50 AM 55.4 °F 55.4 °F 100% 29.77 in 5.0 mi South 18.4 mph - N/A   Mostly Cloudy
4:53 AM 55.9 °F 55.0 °F 97% 29.77 in 5.0 mi South 19.6 mph - N/A   Mostly Cloudy
5:16 AM 55.4 °F 55.4 °F 100% 29.75 in 2.5 mi South 18.4 mph 27.6 mph 0.05 in Rain Rain
5:24 AM 57.2 °F 55.4 °F 94% 29.74 in 5.0 mi South 20.7 mph - 0.05 in Rain Light Rain
5:33 AM 57.2 °F 55.4 °F 94% 29.74 in 5.0 mi South 20.7 mph 28.8 mph 0.05 in Rain Light Rain
5:53 AM 57.0 °F 55.9 °F 96% 29.73 in 3.0 mi South 20.7 mph 28.8 mph 0.09 in Rain Rain
6:53 AM 57.9 °F 55.9 °F 93% 29.69 in 4.0 mi South 25.3 mph 33.4 mph 0.08 in   Overcast
7:21 AM 57.2 °F 57.2 °F 100% 29.68 in 3.0 mi South 25.3 mph 33.4 mph 0.02 in   Overcast
7:36 AM 57.2 °F 55.4 °F 94% 29.68 in 2.0 mi South 25.3 mph 33.4 mph 0.04 in Rain Light Rain
7:53 AM 57.9 °F 57.0 °F 97% 29.67 in 2.0 mi South 24.2 mph 34.5 mph 0.07 in Rain Light Rain
8:14 AM 57.2 °F 57.2 °F 100% 29.66 in 0.8 mi South 23.0 mph 33.4 mph 0.10 in Rain Heavy Rain
8:21 AM 57.2 °F 57.2 °F 100% 29.65 in 1.5 mi South 24.2 mph 29.9 mph 0.10 in   Overcast
8:53 AM 59.0 °F 57.9 °F 96% 29.67 in 1.8 mi SSW 27.6 mph 39.1 mph 0.19 in Rain Rain
9:00 AM 60.8 °F 59.0 °F 94% 29.67 in 2.5 mi SSW 26.5 mph 40.3 mph 0.00 in Rain Light Rain
9:06 AM 60.8 °F 59.0 °F 94% 29.67 in 3.0 mi SSW 26.5 mph 35.7 mph 0.00 in Rain Light Rain
9:24 AM 59.0 °F 57.2 °F 94% 29.67 in 6.0 mi SW 21.9 mph 28.8 mph 0.00 in   Overcast
9:53 AM 59.0 °F 57.0 °F 93% 29.66 in 6.0 mi SSW 17.3 mph - 0.00 in   Overcast
10:53 AM 57.9 °F 55.9 °F 93% 29.65 in 4.0 mi SW 13.8 mph - N/A   Overcast
11:53 AM 57.9 °F 55.0 °F 90% 29.65 in 7.0 mi SSW 12.7 mph - N/A   Mostly Cloudy
12:53 PM 57.9 °F 50.0 °F 75% 29.63 in 10.0 mi SW 13.8 mph - N/A   Overcast
1:53 PM 57.9 °F 50.0 °F 75% 29.63 in 10.0 mi SW 13.8 mph - N/A   Clear
2:53 PM 57.0 °F 50.0 °F 77% 29.63 in 10.0 mi SW 12.7 mph - N/A   Clear
3:53 PM 54.0 °F 50.0 °F 86% 29.64 in 10.0 mi SSW 10.4 mph - N/A   Partly Cloudy
4:53 PM 52.0 °F 48.9 °F 89% 29.64 in 8.0 mi SSW 8.1 mph - N/A   Clear
5:53 PM 51.1 °F 48.9 °F 92% 29.65 in 8.0 mi SW 10.4 mph - N/A   Clear
6:53 PM 52.0 °F 48.0 °F 86% 29.64 in 9.0 mi WSW 13.8 mph - N/A   Clear
7:53 PM 52.0 °F 48.9 °F 89% 29.63 in 8.0 mi WSW 13.8 mph - N/A   Clear
8:53 PM 52.0 °F 48.9 °F 89% 29.64 in 7.0 mi WSW 12.7 mph - N/A   Clear
9:53 PM 54.0 °F 45.0 °F 72% 29.66 in 10.0 mi WSW 16.1 mph 26.5 mph N/A   Clear
10:53 PM 53.1 °F 42.1 °F 66% 29.66 in 10.0 mi West 13.8 mph - N/A   Clear
11:53 PM 51.1 °F 41.0 °F 68% 29.66 in 10.0 mi West 10.4 mph - N/A   Clear